QPF
0.00 0.00 0.00 0.00 0.00 0.00 0.01 0.00 0.00 0.01 0.01 0.02 0.02 0.01 0.02 0.03 0.04 0.02 0.01 0.01 0.03 0.04 0.04 0.04 0.05 0.06 0.09 0.10 0.09 0.06 0.05 0.04 0.03 0.04 0.05 0.04 0.05 0.07 0.06 0.08 0.12 0.10 0.11
0.00 0.00 0.00 0.00 0.00 0.00 0.00 0.00 0.00 0.01 0.01 0.02 0.02 0.02 0.02 0.02 0.03 0.03 0.02 0.02 0.02 0.03 0.04 0.05 0.07 0.07 0.08 0.10 0.10 0.07 0.05 0.04 0.04 0.04 0.07 0.07 0.07 0.07 0.06 0.08 0.09 0.08 0.14
0.00 0.00 0.00 0.00 0.01 0.01 0.01 0.00 0.00 0.01 0.01 0.02 0.02 0.02 0.01 0.02 0.02 0.02 0.03 0.04 0.03 0.03 0.04 0.08 0.09 0.07 0.07 0.10 0.08 0.06 0.04 0.03 0.04 0.05 0.05 0.05 0.04 0.04 0.04 0.05 0.06 0.06 0.08
0.00 0.00 0.00 0.00 0.01 0.01 0.01 0.01 0.01 0.01 0.02 0.03 0.03 0.03 0.02 0.03 0.02 0.03 0.04 0.05 0.05 0.03 0.03 0.06 0.06 0.05 0.09 0.12 0.09 0.07 0.05 0.04 0.04 0.04 0.03 0.02 0.02 0.02 0.02 0.04 0.05 0.06 0.05
0.00 0.00 0.00 0.01 0.01 0.01 0.02 0.01 0.02 0.02 0.03 0.04 0.03 0.04 0.04 0.05 0.05 0.05 0.05 0.03 0.03 0.04 0.04 0.04 0.03 0.04 0.07 0.12 0.12 0.08 0.05 0.04 0.04 0.04 0.03 0.02 0.02 0.03 0.03 0.03 0.04 0.05 0.04
0.00 0.00 0.00 0.00 0.01 0.02 0.03 0.02 0.03 0.04 0.04 0.04 0.03 0.04 0.06 0.05 0.05 0.06 0.05 0.03 0.04 0.04 0.05 0.04 0.05 0.04 0.04 0.04 0.04 0.05 0.04 0.03 0.04 0.04 0.06 0.05 0.03 0.03 0.03 0.04 0.04 0.05 0.04
0.00 0.00 0.00 0.00 0.01 0.02 0.02 0.03 0.04 0.06 0.05 0.05 0.05 0.07 0.08 0.06 0.07 0.07 0.07 0.08 0.07 0.05 0.05 0.05 0.07 0.06 0.05 0.04 0.05 0.04 0.03 0.03 0.05 0.06 0.09 0.07 0.04 0.03 0.04 0.04 0.05 0.05 0.05
0.01 0.00 0.00 0.01 0.01 0.01 0.01 0.03 0.04 0.07 0.05 0.04 0.07 0.10 0.11 0.10 0.10 0.07 0.09 0.09 0.07 0.08 0.10 0.08 0.07 0.07 0.07 0.08 0.06 0.04 0.04 0.08 0.08 0.09 0.10 0.07 0.05 0.05 0.05 0.06 0.07 0.06 0.06
0.01 0.01 0.01 0.01 0.01 0.01 0.01 0.03 0.03 0.05 0.06 0.04 0.03 0.06 0.10 0.10 0.08 0.09 0.08 0.06 0.07 0.10 0.14 0.14 0.12 0.08 0.07 0.08 0.06 0.03 0.05 0.09 0.09 0.11 0.13 0.09 0.07 0.08 0.08 0.09 0.11 0.09 0.06
0.01 0.01 0.01 0.02 0.01 0.01 0.02 0.01 0.01 0.03 0.05 0.05 0.04 0.03 0.03 0.04 0.06 0.07 0.08 0.08 0.07 0.10 0.16 0.16 0.16 0.13 0.07 0.07 0.07 0.04 0.05 0.06 0.11 0.18 0.22 0.18 0.15 0.15 0.18 0.18 0.16 0.15 0.09
0.01 0.01 0.01 0.02 0.02 0.01 0.02 0.02 0.02 0.02 0.03 0.03 0.03 0.03 0.04 0.03 0.03 0.04 0.06 0.08 0.08 0.10 0.13 0.12 0.12 0.13 0.09 0.09 0.09 0.07 0.06 0.06 0.10 0.19 0.24 0.24 0.23 0.21 0.26 0.27 0.24 0.18 0.11
0.01 0.00 0.00 0.01 0.01 0.02 0.02 0.02 0.01 0.02 0.03 0.03 0.02 0.03 0.03 0.03 0.04 0.03 0.04 0.06 0.07 0.07 0.09 0.07 0.07 0.09 0.09 0.08 0.06 0.05 0.07 0.10 0.14 0.16 0.17 0.19 0.20 0.19 0.19 0.17 0.14 0.11 0.08
0.00 0.00 0.00 0.00 0.00 0.01 0.01 0.02 0.02 0.02 0.02 0.02 0.02 0.03 0.01 0.01 0.02 0.03 0.03 0.05 0.05 0.06 0.07 0.05 0.05 0.05 0.06 0.05 0.04 0.03 0.06 0.09 0.11 0.13 0.12 0.10 0.09 0.09 0.09 0.09 0.10 0.09 0.09
0.00 0.00 0.00 0.00 0.00 0.00 0.00 0.00 0.01 0.01 0.01 0.01 0.01 0.02 0.02 0.01 0.01 0.02 0.03 0.04 0.04 0.05 0.04 0.04 0.03 0.02 0.02 0.02 0.01 0.01 0.02 0.04 0.05 0.07 0.10 0.09 0.08 0.07 0.06 0.06 0.06 0.06 0.06
0.00 0.00 0.00 0.00 0.00 0.00 0.01 0.00 0.01 0.01 0.01 0.01 0.01 0.01 0.01 0.02 0.02 0.02 0.02 0.03 0.03 0.04 0.05 0.04 0.02 0.01 0.01 0.00 0.00 0.01 0.01 0.00 0.02 0.03 0.05 0.05 0.04 0.03 0.03 0.02 0.02 0.02 0.03
0.00 0.00 0.00 0.00 0.01 0.01 0.00 0.01 0.01 0.01 0.01 0.01 0.01 0.01 0.01 0.02 0.02 0.02 0.02 0.01 0.01 0.02 0.03 0.02 0.02 0.01 0.01 0.00 0.00 0.00 0.00 0.00 0.00 0.01 0.02 0.02 0.01 0.01 0.01 0.01 0.01 0.01 0.01
0.00 0.00 0.00 0.00 0.00 0.01 0.00 0.01 0.01 0.01 0.01 0.01 0.01 0.01 0.02 0.02 0.02 0.02 0.01 0.01 0.01 0.01 0.02 0.02 0.01 0.02 0.01 0.01 0.00 0.01 0.01 0.01 0.00 0.00 0.00 0.01 0.00 0.00 0.00 0.00 0.00 0.00 0.00
0.00 0.00 0.00 0.00 0.00 0.01 0.00 0.00 0.00 0.00 0.01 0.01 0.01 0.02 0.02 0.02 0.02 0.01 0.01 0.01 0.01 0.00 0.01 0.02 0.02 0.01 0.01 0.01 0.01 0.01 0.01 0.01 0.01 0.00 0.00 0.01 0.00 0.00 0.00 0.00 0.00 0.00 0.00
0.00 0.00 0.00 0.00 0.01 0.01 0.00 0.00 0.00 0.01 0.01 0.02 0.03 0.03 0.02 0.02 0.02 0.02 0.02 0.01 0.00 0.00 0.01 0.02 0.02 0.02 0.01 0.01 0.01 0.01 0.01 0.01 0.01 0.01 0.01 0.00 0.00 0.00 0.00 0.00 0.00 0.00 0.00
0.00 0.00 0.00 0.00 0.01 0.01 0.00 0.00 0.00 0.01 0.01 0.02 0.02 0.02 0.01 0.01 0.02 0.02 0.01 0.01 0.01 0.01 0.01 0.02 0.01 0.01 0.01 0.00 0.00 0.01 0.01 0.01 0.01 0.01 0.00 0.00 0.00 0.00 0.00 0.00 0.00 0.00 0.00
0.00 0.00 0.00 0.00 0.00 0.00 0.00 0.00 0.00 0.00 0.00 0.01 0.01 0.00 0.00 0.00 0.00 0.00 0.00 0.00 0.00 0.01 0.01 0.01 0.01 0.01 0.00 0.00 0.01 0.01 0.02 0.02 0.01 0.01 0.00 0.00 0.00 0.00 0.00 0.00 0.00 0.00 0.00
0.00 0.00 0.00 0.00 0.00 0.00 0.00 0.00 0.00 0.00 0.00 0.00 0.00 0.00 0.00 0.00 0.00 0.00 0.00 0.00 0.00 0.00 0.00 0.00 0.00 0.00 0.00 0.00 0.01 0.02 0.02 0.02 0.01 0.00 0.00 0.00 0.00 0.00 0.00 0.00 0.00 0.00 0.00
0.00 0.00 0.00 0.00 0.00 0.00 0.00 0.00 0.00 0.00 0.00 0.00 0.00 0.00 0.00 0.00 0.00 0.00 0.00 0.00 0.00 0.00 0.00 0.00 0.00 0.00 0.00 0.01 0.01 0.02 0.02 0.02 0.01 0.01 0.00 0.00 0.00 0.00 0.00 0.00 0.00 0.00 0.00
0.00 0.00 0.00 0.00 0.00 0.00 0.00 0.00 0.00 0.00 0.00 0.00 0.00 0.00 0.00 0.00 0.00 0.00 0.00 0.00 0.00 0.00 0.00 0.00 0.00 0.00 0.00 0.01 0.01 0.01 0.01 0.01 0.01 0.01 0.00 0.00 0.00 0.00 0.00 0.00 0.00 0.00 0.00
0.00 0.00 0.00 0.00 0.00 0.00 0.00 0.00 0.00 0.00 0.00 0.00 0.00 0.00 0.00 0.00 0.00 0.00 0.00 0.00 0.00 0.00 0.00 0.00 0.00 0.00 0.00 0.00 0.00 0.00 0.01 0.00 0.00 0.00 0.00 0.00 0.00 0.00 0.00 0.00 0.00 0.00 0.00
0.00 0.00 0.00 0.00 0.00 0.00 0.00 0.00 0.00 0.00 0.00 0.00 0.00 0.00 0.00 0.00 0.00 0.00 0.00 0.00 0.00 0.00 0.00 0.00 0.00 0.00 0.00 0.00 0.00 0.00 0.01 0.01 0.00 0.00 0.00 0.00 0.00 0.00 0.00 0.00 0.00 0.00 0.00
MSLP
1015.26 1015.43 1015.56 1015.62 1015.62 1015.58 1015.52 1015.45 1015.41 1015.38 1015.39 1015.42 1015.48 1015.57 1015.69 1015.84 1016.03 1016.26 1016.51 1016.77 1017.03 1017.26 1017.43 1017.53 1017.54 1017.46 1017.30 1017.09 1016.85 1016.59 1016.35 1016.12 1015.89 1015.63 1015.29 1014.80 1014.12 1013.20 1012.03 1010.65 1009.15 1007.65 1006.32
1015.14 1015.28 1015.38 1015.45 1015.48 1015.49 1015.47 1015.46 1015.46 1015.49 1015.54 1015.61 1015.71 1015.83 1015.96 1016.12 1016.29 1016.48 1016.69 1016.90 1017.11 1017.30 1017.46 1017.56 1017.60 1017.57 1017.48 1017.32 1017.12 1016.90 1016.66 1016.43 1016.19 1015.92 1015.59 1015.14 1014.53 1013.71 1012.69 1011.49 1010.17 1008.86 1007.68
1015.10 1015.20 1015.29 1015.39 1015.46 1015.53 1015.59 1015.66 1015.73 1015.81 1015.91 1016.02 1016.15 1016.28 1016.41 1016.54 1016.68 1016.81 1016.95 1017.09 1017.22 1017.35 1017.47 1017.57 1017.62 1017.64 1017.59 1017.50 1017.35 1017.16 1016.94 1016.71 1016.47 1016.20 1015.89 1015.49 1014.98 1014.33 1013.51 1012.55 1011.50 1010.44 1009.50
1015.16 1015.22 1015.31 1015.43 1015.57 1015.71 1015.86 1016.00 1016.15 1016.29 1016.44 1016.58 1016.72 1016.86 1016.97 1017.08 1017.16 1017.23 1017.28 1017.33 1017.39 1017.45 1017.52 1017.59 1017.65 1017.69 1017.69 1017.65 1017.54 1017.39 1017.19 1016.97 1016.72 1016.45 1016.16 1015.83 1015.43 1014.95 1014.36 1013.67 1012.91 1012.14 1011.45
1015.31 1015.34 1015.43 1015.58 1015.77 1015.98 1016.20 1016.42 1016.63 1016.83 1017.01 1017.18 1017.33 1017.46 1017.57 1017.64 1017.69 1017.70 1017.68 1017.66 1017.64 1017.63 1017.65 1017.69 1017.74 1017.80 1017.83 1017.83 1017.76 1017.64 1017.45 1017.23 1016.97 1016.70 1016.42 1016.14 1015.83 1015.50 1015.11 1014.67 1014.19 1013.70 1013.24
1015.53 1015.53 1015.62 1015.79 1016.02 1016.29 1016.56 1016.84 1017.09 1017.32 1017.53 1017.71 1017.87 1018.01 1018.11 1018.18 1018.20 1018.19 1018.14 1018.06 1017.99 1017.93 1017.90 1017.91 1017.96 1018.01 1018.07 1018.08 1018.05 1017.94 1017.77 1017.53 1017.26 1016.98 1016.69 1016.43 1016.18 1015.95 1015.71 1015.46 1015.19 1014.93 1014.68
1015.80 1015.76 1015.84 1016.02 1016.27 1016.57 1016.88 1017.18 1017.45 1017.70 1017.91 1018.10 1018.27 1018.42 1018.54 1018.62 1018.67 1018.66 1018.61 1018.53 1018.44 1018.36 1018.30 1018.29 1018.31 1018.36 1018.41 1018.44 1018.42 1018.33 1018.16 1017.92 1017.63 1017.32 1017.02 1016.74 1016.51 1016.32 1016.16 1016.02 1015.90 1015.78 1015.67
1016.08 1016.03 1016.09 1016.26 1016.51 1016.80 1017.11 1017.41 1017.68 1017.91 1018.12 1018.31 1018.49 1018.66 1018.82 1018.95 1019.04 1019.09 1019.08 1019.03 1018.96 1018.87 1018.81 1018.78 1018.78 1018.82 1018.86 1018.89 1018.88 1018.80 1018.63 1018.39 1018.09 1017.76 1017.43 1017.12 1016.87 1016.67 1016.53 1016.43 1016.36 1016.31 1016.27
1016.38 1016.30 1016.34 1016.49 1016.72 1016.99 1017.27 1017.54 1017.78 1017.99 1018.18 1018.36 1018.55 1018.76 1018.96 1019.16 1019.32 1019.44 1019.51 1019.52 1019.49 1019.43 1019.36 1019.32 1019.31 1019.32 1019.36 1019.38 1019.37 1019.30 1019.15 1018.92 1018.62 1018.29 1017.94 1017.60 1017.31 1017.08 1016.90 1016.78 1016.71 1016.66 1016.63
1016.68 1016.59 1016.61 1016.72 1016.91 1017.14 1017.38 1017.60 1017.80 1017.97 1018.14 1018.31 1018.51 1018.74 1018.99 1019.25 1019.50 1019.70 1019.85 1019.93 1019.95 1019.93 1019.88 1019.83 1019.80 1019.80 1019.81 1019.82 1019.81 1019.76 1019.64 1019.44 1019.18 1018.86 1018.52 1018.17 1017.86 1017.59 1017.36 1017.20 1017.08 1017.00 1016.94
1016.99 1016.89 1016.88 1016.97 1017.12 1017.30 1017.49 1017.66 1017.81 1017.94 1018.08 1018.23 1018.43 1018.67 1018.96 1019.27 1019.58 1019.86 1020.08 1020.23 1020.30 1020.31 1020.28 1020.23 1020.18 1020.16 1020.15 1020.15 1020.15 1020.11 1020.03 1019.89 1019.68 1019.41 1019.11 1018.80 1018.48 1018.20 1017.94 1017.73 1017.57 1017.44 1017.34
1017.28 1017.19 1017.17 1017.24 1017.35 1017.50 1017.64 1017.77 1017.88 1017.97 1018.07 1018.20 1018.38 1018.62 1018.92 1019.26 1019.60 1019.93 1020.20 1020.40 1020.51 1020.55 1020.53 1020.47 1020.41 1020.36 1020.33 1020.32 1020.32 1020.31 1020.28 1020.20 1020.06 1019.88 1019.65 1019.40 1019.13 1018.86 1018.61 1018.38 1018.18 1018.01 1017.87
1017.57 1017.49 1017.48 1017.53 1017.63 1017.75 1017.86 1017.95 1018.03 1018.09 1018.15 1018.25 1018.41 1018.63 1018.91 1019.24 1019.60 1019.94 1020.23 1020.45 1020.58 1020.64 1020.63 1020.57 1020.50 1020.43 1020.38 1020.36 1020.36 1020.37 1020.37 1020.35 1020.30 1020.21 1020.07 1019.90 1019.71 1019.49 1019.28 1019.07 1018.87 1018.69 1018.53
1017.83 1017.78 1017.79 1017.84 1017.94 1018.05 1018.15 1018.22 1018.28 1018.31 1018.35 1018.42 1018.54 1018.72 1018.97 1019.27 1019.60 1019.92 1020.21 1020.44 1020.58 1020.65 1020.65 1020.59 1020.51 1020.42 1020.36 1020.32 1020.31 1020.33 1020.35 1020.38 1020.39 1020.38 1020.33 1020.26 1020.15 1020.02 1019.86 1019.70 1019.53 1019.37 1019.21
1018.06 1018.05 1018.08 1018.16 1018.27 1018.39 1018.49 1018.57 1018.61 1018.64 1018.66 1018.70 1018.79 1018.93 1019.13 1019.38 1019.67 1019.96 1020.23 1020.44 1020.59 1020.67 1020.67 1020.62 1020.54 1020.45 1020.37 1020.31 1020.28 1020.28 1020.30 1020.34 1020.38 1020.42 1020.44 1020.44 1020.42 1020.37 1020.29 1020.20 1020.08 1019.96 1019.84
1018.27 1018.30 1018.38 1018.48 1018.62 1018.75 1018.87 1018.96 1019.02 1019.04 1019.06 1019.08 1019.14 1019.24 1019.39 1019.60 1019.84 1020.09 1020.33 1020.54 1020.69 1020.78 1020.80 1020.77 1020.70 1020.60 1020.50 1020.42 1020.35 1020.32 1020.31 1020.32 1020.36 1020.40 1020.45 1020.49 1020.53 1020.54 1020.54 1020.51 1020.46 1020.40 1020.32
1018.48 1018.55 1018.67 1018.81 1018.97 1019.13 1019.27 1019.38 1019.45 1019.49 1019.51 1019.53 1019.57 1019.65 1019.77 1019.94 1020.14 1020.36 1020.59 1020.78 1020.94 1021.05 1021.10 1021.09 1021.04 1020.95 1020.85 1020.73 1020.62 1020.53 1020.46 1020.42 1020.40 1020.41 1020.43 1020.48 1020.53 1020.58 1020.63 1020.66 1020.67 1020.66 1020.63
1018.70 1018.82 1018.97 1019.14 1019.33 1019.51 1019.67 1019.80 1019.90 1019.96 1019.99 1020.02 1020.07 1020.14 1020.24 1020.39 1020.57 1020.78 1020.99 1021.19 1021.36 1021.49 1021.58 1021.60 1021.58 1021.50 1021.39 1021.25 1021.10 1020.95 1020.80 1020.68 1020.58 1020.52 1020.49 1020.50 1020.53 1020.59 1020.65 1020.71 1020.77 1020.80 1020.81
1018.97 1019.13 1019.31 1019.50 1019.71 1019.90 1020.08 1020.22 1020.34 1020.42 1020.48 1020.53 1020.59 1020.67 1020.78 1020.92 1021.10 1021.30 1021.51 1021.72 1021.91 1022.06 1022.18 1022.24 1022.25 1022.19 1022.09 1021.94 1021.75 1021.54 1021.33 1021.12 1020.94 1020.79 1020.69 1020.64 1020.63 1020.65 1020.71 1020.78 1020.85 1020.91 1020.95
1019.30 1019.48 1019.68 1019.89 1020.10 1020.30 1020.48 1020.63 1020.76 1020.86 1020.94 1021.03 1021.11 1021.22 1021.35 1021.50 1021.68 1021.89 1022.10 1022.31 1022.51 1022.69 1022.83 1022.92 1022.96 1022.93 1022.84 1022.69 1022.50 1022.26 1021.99 1021.73 1021.47 1021.25 1021.07 1020.95 1020.88 1020.87 1020.89 1020.94 1021.01 1021.07 1021.12
1019.67 1019.88 1020.10 1020.31 1020.52 1020.71 1020.88 1021.03 1021.16 1021.28 1021.39 1021.50 1021.62 1021.76 1021.91 1022.08 1022.27 1022.48 1022.69 1022.90 1023.10 1023.28 1023.44 1023.55 1023.61 1023.62 1023.56 1023.43 1023.25 1023.01 1022.73 1022.44 1022.15 1021.87 1021.64 1021.46 1021.33 1021.27 1021.25 1021.26 1021.30 1021.34 1021.37
1020.06 1020.30 1020.52 1020.74 1020.94 1021.12 1021.28 1021.42 1021.56 1021.68 1021.81 1021.95 1022.10 1022.27 1022.45 1022.64 1022.83 1023.03 1023.24 1023.43 1023.62 1023.79 1023.94 1024.07 1024.15 1024.19 1024.16 1024.08 1023.93 1023.73 1023.48 1023.19 1022.90 1022.61 1022.35 1022.13 1021.97 1021.85 1021.78 1021.74 1021.73 1021.73 1021.71
1020.43 1020.69 1020.93 1021.15 1021.34 1021.52 1021.67 1021.80 1021.93 1022.07 1022.22 1022.38 1022.56 1022.75 1022.95 1023.15 1023.35 1023.53 1023.71 1023.88 1024.04 1024.19 1024.33 1024.45 1024.55 1024.61 1024.63 1024.60 1024.51 1024.37 1024.17 1023.94 1023.68 1023.41 1023.15 1022.92 1022.72 1022.56 1022.44 1022.35 1022.27 1022.20 1022.12
1020.73 1021.02 1021.29 1021.52 1021.72 1021.89 1022.03 1022.17 1022.31 1022.45 1022.62 1022.80 1023.00 1023.21 1023.42 1023.63 1023.82 1023.99 1024.14 1024.28 1024.40 1024.51 1024.63 1024.73 1024.83 1024.92 1024.98 1025.01 1024.99 1024.92 1024.79 1024.62 1024.42 1024.19 1023.95 1023.72 1023.50 1023.31 1023.14 1022.99 1022.85 1022.70 1022.55
1020.94 1021.27 1021.57 1021.82 1022.04 1022.22 1022.38 1022.52 1022.67 1022.83 1023.01 1023.21 1023.43 1023.66 1023.88 1024.09 1024.28 1024.43 1024.56 1024.66 1024.74 1024.82 1024.91 1025.00 1025.09 1025.19 1025.28 1025.36 1025.39 1025.39 1025.34 1025.23 1025.09 1024.90 1024.69 1024.47 1024.24 1024.02 1023.80 1023.59 1023.38 1023.16 1022.93
1021.05 1021.43 1021.77 1022.06 1022.31 1022.52 1022.70 1022.86 1023.03 1023.21 1023.41 1023.63 1023.87 1024.11 1024.35 1024.56 1024.75 1024.89 1025.00 1025.08 1025.14 1025.19 1025.24 1025.31 1025.40 1025.50 1025.60 1025.70 1025.78 1025.83 1025.82 1025.77 1025.66 1025.51 1025.32 1025.10 1024.86 1024.61 1024.35 1024.09 1023.82 1023.53 1023.22
Thickness
5733 5731 5729 5726 5724 5723 5722 5722 5722 5722 5722 5723 5724 5724 5724 5724 5723 5721 5720 5722 5723 5725 5727 5729 5732 5734 5736 5738 5740 5742 5744 5746 5748 5751 5753 5755 5757 5759 5761 5764 5766 5767 5769
5733 5731 5728 5726 5724 5722 5721 5721 5720 5719 5719 5719 5719 5720 5721 5721 5721 5720 5719 5719 5720 5722 5724 5726 5729 5731 5733 5735 5737 5739 5741 5743 5746 5748 5750 5752 5754 5756 5758 5760 5763 5765 5767
5733 5730 5727 5725 5723 5721 5720 5719 5718 5717 5717 5717 5716 5717 5718 5719 5719 5718 5718 5717 5718 5719 5721 5723 5726 5728 5730 5732 5734 5736 5738 5740 5743 5745 5747 5749 5750 5752 5755 5757 5759 5762 5763
5731 5729 5726 5724 5722 5721 5719 5717 5716 5714 5713 5712 5712 5714 5715 5716 5717 5717 5717 5717 5717 5718 5719 5721 5722 5724 5727 5729 5731 5733 5735 5737 5739 5741 5743 5745 5747 5749 5752 5754 5756 5758 5760
5730 5728 5726 5724 5722 5720 5718 5717 5714 5712 5710 5710 5710 5711 5712 5713 5714 5715 5715 5715 5716 5716 5717 5718 5720 5721 5723 5725 5727 5729 5732 5734 5736 5738 5740 5742 5744 5746 5748 5751 5753 5755 5756
5728 5727 5726 5724 5722 5719 5716 5715 5713 5712 5711 5710 5711 5709 5710 5711 5712 5712 5713 5713 5714 5715 5716 5716 5718 5719 5720 5721 5723 5725 5728 5731 5733 5736 5738 5739 5741 5743 5745 5747 5749 5751 5752
5727 5726 5725 5723 5721 5718 5716 5715 5713 5711 5710 5711 5707 5703 5706 5709 5709 5710 5711 5711 5712 5713 5714 5715 5716 5716 5717 5718 5719 5721 5724 5727 5731 5733 5736 5738 5739 5741 5742 5744 5746 5747 5747
5727 5726 5725 5722 5720 5718 5716 5715 5713 5711 5711 5712 5706 5700 5696 5698 5704 5708 5708 5709 5709 5711 5712 5712 5713 5714 5714 5714 5715 5718 5720 5724 5727 5730 5733 5734 5736 5738 5739 5741 5742 5743 5743
5725 5725 5724 5723 5721 5719 5716 5715 5714 5711 5708 5711 5712 5706 5697 5693 5697 5701 5705 5706 5707 5707 5708 5709 5709 5710 5710 5710 5712 5714 5716 5719 5722 5726 5728 5730 5732 5733 5735 5737 5737 5737 5737
5724 5724 5723 5723 5721 5719 5718 5717 5716 5715 5712 5708 5711 5713 5711 5707 5699 5694 5699 5703 5704 5704 5705 5706 5706 5706 5706 5707 5707 5708 5711 5714 5717 5720 5722 5723 5725 5727 5729 5731 5731 5731 5730
5724 5724 5723 5722 5721 5719 5718 5718 5716 5715 5714 5711 5710 5710 5710 5710 5709 5699 5693 5696 5699 5701 5702 5703 5703 5702 5702 5703 5703 5704 5706 5708 5711 5713 5715 5716 5718 5720 5722 5723 5724 5724 5724
5724 5723 5723 5722 5721 5719 5718 5718 5717 5716 5714 5713 5712 5711 5709 5706 5704 5702 5697 5695 5695 5697 5700 5700 5700 5699 5699 5699 5699 5700 5701 5703 5705 5706 5708 5709 5711 5712 5714 5714 5715 5716 5717
5722 5722 5723 5721 5721 5720 5719 5718 5717 5716 5715 5713 5712 5711 5710 5709 5709 5706 5700 5697 5695 5696 5697 5697 5697 5697 5696 5696 5696 5696 5697 5698 5699 5700 5701 5703 5704 5705 5706 5707 5708 5709 5710
5724 5724 5723 5721 5721 5720 5719 5719 5717 5716 5715 5714 5713 5711 5710 5709 5709 5707 5703 5698 5693 5692 5693 5692 5695 5694 5694 5693 5693 5693 5693 5693 5694 5695 5696 5697 5698 5699 5699 5700 5700 5701 5702
5726 5725 5723 5721 5720 5719 5719 5718 5716 5715 5714 5712 5711 5710 5709 5708 5708 5707 5706 5703 5695 5688 5686 5689 5690 5692 5691 5691 5690 5690 5689 5690 5690 5690 5691 5691 5691 5692 5692 5693 5693 5694 5694
5726 5725 5723 5721 5720 5718 5717 5716 5715 5714 5712 5710 5710 5708 5707 5707 5706 5706 5705 5704 5701 5695 5688 5688 5689 5689 5689 5689 5688 5687 5687 5686 5686 5687 5687 5686 5686 5687 5687 5686 5686 5686 5687
5725 5724 5723 5721 5719 5718 5716 5715 5713 5712 5711 5709 5709 5707 5705 5705 5703 5703 5702 5701 5699 5696 5689 5688 5689 5689 5687 5686 5686 5685 5685 5684 5683 5683 5682 5682 5682 5681 5681 5680 5680 5679 5679
5725 5724 5723 5721 5719 5717 5715 5713 5712 5710 5709 5707 5706 5705 5704 5703 5701 5700 5699 5698 5696 5695 5690 5685 5686 5686 5685 5684 5684 5683 5682 5681 5680 5679 5679 5678 5677 5676 5675 5674 5673 5673 5672
5724 5723 5722 5720 5718 5717 5715 5713 5711 5709 5708 5706 5704 5702 5701 5700 5697 5697 5696 5695 5694 5694 5690 5686 5683 5683 5682 5682 5681 5680 5680 5678 5677 5676 5675 5673 5672 5671 5669 5668 5667 5666 5665
5723 5722 5721 5719 5717 5716 5714 5712 5711 5709 5706 5704 5702 5700 5698 5696 5694 5694 5693 5691 5691 5689 5687 5683 5680 5679 5678 5678 5677 5674 5673 5674 5673 5673 5671 5669 5668 5666 5664 5662 5661 5659 5658
5722 5720 5718 5717 5715 5714 5712 5710 5709 5707 5704 5702 5700 5698 5696 5694 5693 5691 5690 5687 5686 5684 5682 5679 5676 5674 5672 5671 5670 5670 5668 5668 5668 5668 5666 5664 5662 5660 5658 5656 5655 5653 5651
5718 5717 5715 5713 5712 5711 5709 5708 5707 5705 5703 5700 5698 5695 5693 5691 5690 5688 5686 5685 5683 5680 5677 5674 5671 5669 5668 5668 5667 5666 5663 5661 5659 5662 5659 5657 5656 5654 5652 5650 5648 5646 5644
5714 5712 5711 5709 5707 5706 5706 5705 5704 5702 5700 5698 5696 5694 5693 5690 5687 5685 5683 5681 5679 5677 5675 5671 5667 5665 5664 5664 5663 5661 5659 5656 5653 5654 5652 5648 5648 5646 5645 5643 5641 5639 5637
5710 5708 5707 5706 5704 5703 5703 5702 5700 5698 5697 5695 5694 5692 5689 5686 5685 5682 5679 5677 5674 5673 5671 5669 5666 5663 5662 5661 5659 5656 5654 5652 5651 5648 5646 5640 5640 5638 5638 5636 5633 5631 5629
5707 5706 5704 5702 5701 5699 5699 5698 5696 5694 5692 5691 5690 5689 5687 5684 5682 5680 5677 5673 5670 5668 5667 5665 5663 5660 5658 5656 5654 5651 5648 5644 5640 5639 5638 5633 5631 5631 5630 5628 5626 5623 5620
5705 5704 5702 5701 5699 5697 5696 5695 5693 5691 5688 5687 5686 5685 5683 5681 5679 5676 5673 5669 5665 5663 5663 5660 5658 5656 5653 5651 5648 5645 5641 5636 5632 5630 5630 5626 5623 5620 5619 5620 5618 5614 5611